Content
SEND FEEDBACK

Daily
Averages
Monthly
Summary
Canada

VANCOUVER, BRITISH COLUMBIA


Home > North America > Canada > British Columbia
Elevation: 7 feet     Latitude: 49 11N     Longitude: 123 10W

WEATHER
 
SELECT A DAY
Number of Records: 253,266;   Date Range: 5/15/97 - 10/30/14
 
SHARE

PRINT THIS DATA

[ ← Previous Day ]
WEATHER ALMANAC - MAY 25, 2013
[ Next Day → ]
[ °C ]   °F
Weather ElementAverageHighLow
Temperature53 °F59 °F (2:15 pm)50 °F (12:35 am)
Dewpoint46.8 °F48.2 °F (12:35 am)44.6 °F (5:15 pm)
Humidity80.2 %94 % (12:35 am)63 % (2:15 pm)
Barometer30.00 in30.02 in (8:15 am)29.98 in (8:55 pm)
Wind Speed5.6 mph11.5 mph (6:55 am)
Weather ElementAverage
Visibility9.8 mi
Wind DirectionSSE (154.8 °)

Weather ElementTotal
Precipitation---
Heating Degree Days10.5 (Base 65)
Growing Degree Days4.5 (Base 50)
Averaged from 71 records on May 25, 2013
WEATHER CONDITIONS BREAKOUT
WIND DIRECTION BREAKOUT
WEATHER BY HOUR - MAY 25, 2013
[ °C ]   °F
Local TimeTemperatureDewpointHumidityBarometerVisibilityWind DirectionWind SpeedGust SpeedPrecipitationEventsConditions
12:35 AM50.0 °F48.2 °F94 %30.01 in5.0 miSSW (200°)5.8 mphRainLight Rain
12:55 AM50.0 °F48.2 °F94 %30.01 in10.0 miCalmMostly Cloudy
1:15 AM50.0 °F48.2 °F94 %30.00 in9.0 miNorthRainLight Rain
1:35 AM50.0 °F46.4 °F87 %30.00 in10.0 miCalmPartly Cloudy
1:55 AM50.0 °F46.4 °F87 %30.00 in10.0 miSouth (180°)4.6 mphScattered Clouds
2:15 AM50.0 °F46.4 °F87 %30.00 in10.0 miSSW (200°)10.4 mphMostly Cloudy
2:35 AM50.0 °F46.4 °F87 %29.99 in10.0 miSSW (210°)9.2 mphScattered Clouds
2:55 AM50.0 °F48.2 °F94 %29.99 in10.0 miSSW (200°)9.2 mphClear
3:15 AM50.0 °F46.4 °F87 %29.99 in10.0 miSSW (200°)9.2 mphMostly Cloudy
3:35 AM50.0 °F48.2 °F94 %29.99 in10.0 miSouth (190°)9.2 mphOvercast
3:55 AM50.0 °F48.2 °F94 %29.99 in10.0 miSSW (200°)10.4 mphOvercast
4:15 AM50.0 °F48.2 °F94 %30.00 in10.0 miSSW (200°)8.1 mphOvercast
4:35 AM50.0 °F46.4 °F87 %30.00 in10.0 miSouth (190°)8.1 mphOvercast
4:55 AM50.0 °F46.4 °F87 %29.99 in10.0 miSouth (190°)6.9 mphOvercast
5:15 AM50.0 °F46.4 °F87 %29.99 in10.0 miSouth (180°)4.6 mphOvercast
5:35 AM50.0 °F46.4 °F87 %29.99 in10.0 miSouth (180°)4.6 mphOvercast
5:55 AM50.0 °F46.4 °F87 %29.99 in9.0 miSouth (190°)10.4 mphMostly Cloudy
6:15 AM50.0 °F46.4 °F87 %30.00 in9.0 miSouth (190°)9.2 mphScattered Clouds
6:35 AM50.0 °F46.4 °F87 %30.00 in10.0 miSouth (190°)9.2 mphMostly Cloudy
6:55 AM50.0 °F46.4 °F87 %30.00 in10.0 miSSW (200°)11.5 mphMostly Cloudy
7:15 AM50.0 °F46.4 °F87 %30.00 in9.0 miSouth (190°)9.2 mphMostly Cloudy
7:35 AM50.0 °F46.4 °F87 %30.01 in9.0 miSouth (190°)8.1 mphMostly Cloudy
7:55 AM50.0 °F46.4 °F87 %30.01 in10.0 miSouth (190°)6.9 mphOvercast
8:15 AM50.0 °F46.4 °F87 %30.02 in10.0 miSouth (190°)11.5 mphOvercast
8:35 AM50.0 °F46.4 °F87 %30.02 in10.0 miSouth (190°)9.2 mphOvercast
8:55 AM51.8 °F48.2 °F88 %30.01 in10.0 miSouth (180°)11.5 mphScattered Clouds
9:15 AM51.8 °F46.4 °F82 %30.01 in10.0 miSouth (180°)8.1 mphMostly Cloudy
9:35 AM53.6 °F46.4 °F77 %30.01 in10.0 miSSW (200°)9.2 mphMostly Cloudy
9:55 AM53.6 °F46.4 °F77 %30.02 in10.0 miSouth (180°)5.8 mphScattered Clouds
10:15 AM53.6 °F46.4 °F77 %30.02 in10.0 miSSE (160°)4.6 mphMostly Cloudy
10:35 AM53.6 °F46.4 °F77 %30.02 in10.0 miSouth (190°)8.1 mphMostly Cloudy
10:55 AM53.6 °F46.4 °F77 %30.02 in10.0 miSSW (200°)8.1 mphOvercast
11:15 AM51.8 °F48.2 °F88 %30.02 in10.0 miSouth (190°)6.9 mphOvercast
11:35 AM53.6 °F48.2 °F82 %30.02 in9.0 miSouth (190°)4.6 mphOvercast
11:55 AM53.6 °F48.2 °F82 %30.02 in9.0 miSSE (150°)4.6 mphMostly Cloudy
12:15 PM55.4 °F46.4 °F72 %30.02 in10.0 miSSW (200°)9.2 mphMostly Cloudy
12:35 PM55.4 °F46.4 °F72 %30.01 in10.0 miSouth (190°)9.2 mphOvercast
12:55 PM57.2 °F46.4 °F67 %30.01 in10.0 miSSW (200°)9.2 mphMostly Cloudy
1:15 PM57.2 °F46.4 °F67 %30.01 in10.0 miSSW (200°)10.4 mphPartly Cloudy
1:35 PM57.2 °F46.4 °F67 %30.01 in10.0 miSSW (200°)9.2 mphPartly Cloudy
1:55 PM57.2 °F46.4 °F67 %30.01 in10.0 miSSW (200°)6.9 mphScattered Clouds
2:15 PM59.0 °F46.4 °F63 %30.01 in10.0 miSSW (200°)6.9 mphPartly Cloudy
2:35 PM57.2 °F48.2 °F72 %30.01 in10.0 miNNW (340°)8.1 mphScattered Clouds
2:55 PM55.4 °F48.2 °F77 %30.01 in10.0 miNNW (330°)5.8 mphMostly Cloudy
3:15 PM53.6 °F46.4 °F77 %30.01 in10.0 miNNW (340°)6.9 mphMostly Cloudy
3:35 PM53.6 °F46.4 °F77 %30.01 in10.0 miNorth (350°)3.5 mphMostly Cloudy
3:55 PM53.6 °F46.4 °F77 %30.01 in10.0 miNorth (10°)3.5 mphScattered Clouds
4:15 PM53.6 °F46.4 °F77 %30.01 in10.0 miCalmPartly Cloudy
4:35 PM53.6 °F46.4 °F77 %30.01 in10.0 miCalmPartly Cloudy
4:55 PM55.4 °F46.4 °F72 %30.00 in10.0 miNorth (350°)6.9 mphScattered Clouds
5:15 PM55.4 °F44.6 °F67 %30.00 in10.0 miNorth (350°)4.6 mphClear
5:35 PM55.4 °F46.4 °F72 %30.00 in10.0 miCalmClear
5:55 PM57.2 °F46.4 °F67 %30.00 in10.0 miNorth (350°)4.6 mphClear
6:15 PM55.4 °F46.4 °F72 %30.00 in10.0 miCalmClear
6:35 PM55.4 °F46.4 °F72 %29.99 in10.0 miCalmClear
6:55 PM55.4 °F46.4 °F72 %29.99 in10.0 miNorth (350°)3.5 mphClear
7:15 PM55.4 °F46.4 °F72 %29.99 in10.0 miCalmClear
7:35 PM55.4 °F46.4 °F72 %29.99 in10.0 miCalmClear
7:55 PM57.2 °F46.4 °F67 %29.99 in10.0 miCalmClear
8:15 PM55.4 °F48.2 °F77 %29.99 in10.0 miCalmClear
8:35 PM55.4 °F46.4 °F72 %29.99 in10.0 miCalmClear
8:55 PM53.6 °F46.4 °F77 %29.98 in10.0 miCalmClear
9:15 PM53.6 °F46.4 °F77 %29.98 in10.0 miCalmClear
9:35 PM51.8 °F46.4 °F82 %29.99 in10.0 miCalmScattered Clouds
9:55 PM53.6 °F46.4 °F77 %29.99 in10.0 miCalmMostly Cloudy
10:15 PM53.6 °F46.4 °F77 %29.99 in10.0 miNorthMostly Cloudy
10:35 PM53.6 °F48.2 °F82 %29.99 in10.0 miNorthPartly Cloudy
10:55 PM53.6 °F46.4 °F77 %29.99 in10.0 miSouth (190°)3.5 mphClear
11:15 PM53.6 °F48.2 °F82 %29.99 in10.0 miSSW (200°)4.6 mphRainLight Rain
11:35 PM53.6 °F48.2 °F82 %29.98 in8.0 miSSW (200°)5.8 mphRainLight Rain
11:55 PM51.8 °F48.2 °F88 %29.98 in7.0 miSouth (180°)3.5 mphRainLight Rain
Hourly data recorded from CZBB, located miles away from Vancouver, British Columbia







STORIES FROM OUR PARTNERS